Regional Weather Roundup
Issued by NWS

Home | Current Version | Previous Version | Text Only | Print | Product List | Glossary On
Versions: 1 2 3 4 5 6 7 8 9 10 11 12 13 14 15 16 17 18 19 20 21 22 23 24 25 26 27 28 29 30 31 32 33 34 35 36 37 38 39 40 41 42 43 44 45 46 47 48 49 50
000
ASUS44 KFWD 211101
RWRTX
NORTH TEXAS HOURLY WEATHER ROUNDUP
NATIONAL WEATHER SERVICE FORT WORTH TX
500 AM CST SUN JAN 21 2018

NOTE: "FAIR" INDICATES FEW OR NO CLOUDS BELOW 12,000 FEET WITH NO
SIGNIFICANT WEATHER AND/OR OBSTRUCTIONS TO VISIBILITY.

TXZ118-119-211200-
DALLAS/FORT WORTH METROPLEX

CITY           SKY/WX    TMP DP  RH WIND       PRES   REMARKS
DFW AIRPORT    MOCLDY    65  59  81 S17       29.88R
DALLAS LOVE    CLOUDY    65  58  78 S14G25    29.89S
FTW MEACHAM    CLOUDY    62  58  86 S9        29.88S
DAL-EXECUTIVE  MOCLDY    63  59  87 S12       29.90R
FTW-ALLIANCE   CLOUDY    62  57  83 S10G21    29.87S
FTW-NAS-JRB    CLOUDY    62  56  80 S9        29.89S
FTW-SPINKS     CLOUDY    63  58  84 S10G18    29.91R
ARLINGTON      CLOUDY    63  59  87 S16G23    29.89S
GRAND PRAIRIE  CLOUDY    63  57  80 S17G24    29.91S
MESQUITE       CLOUDY    63  59  86 S13G23    29.91S
LANCASTER      CLOUDY    63  59  88 S10       29.92S
$$

TXZ091>094-102>105-117-120-121-131>134-211200-
NORTH CENTRAL TEXAS

CITY           SKY/WX    TMP DP  RH WIND       PRES   REMARKS
SHRMAN/DENISON NOT AVBL
BOWIE          CLOUDY    59  53  81 S18G25    29.84F
BRIDGEPORT     CLOUDY    60  53  76 S13G21    29.88S
DECATUR        CLOUDY    60  55  82 S16G23    29.86F
DENTON         CLOUDY    62  57  83 S16       29.89R
MCKINNEY       CLOUDY    63  60  90 S16G29    29.89R
BONHAM         CLOUDY    61  58  88 S13G20    29.90S
TERRELL        CLOUDY    64  60  87 S13       29.92F
WAXAHACHIE     CLOUDY    62  61  97 S14G23    29.92S
CLEBURNE       CLOUDY    61  61 100 S9        29.91S
GRANBURY       CLOUDY    63  56  79 S12G22    29.89S
$$

TXZ083>090-098>101-113>116-127>130-139>142-154-155-211200-
WESTERN NORTH TEXAS

CITY           SKY/WX    TMP DP  RH WIND       PRES   REMARKS
WICHITA FALLS  FAIR      50  47  89 S13       29.81F
WF-KICKAPOO    FAIR      51  48  92 S6        29.85F
VERNON         FAIR      49  38  64 S13       29.79R
ABILENE        FAIR      54  51  90 S23G33    29.79F
ABILENE-DYESS  FAIR      55  51  89 S26G37    29.78F
BRECKENRIDGE   MOCLDY    59  51  75 S20G25    29.83F
CISCO          CLOUDY    57  52  82 S14       29.85F
RANGER         CLOUDY    59  54  82 S13G21    29.87S
MINERAL WELLS  CLOUDY    59  54  83 S13       29.85F
STEPHENVILLE   CLOUDY    59  55  85 S10       29.90F
COMANCHE       CLOUDY    58  57  94 S13G18    29.87F
COLEMAN        CLOUDY    59  52  79 S14       29.86F
$$

TXZ143>147-156>162-174-175-211200-
CENTRAL TEXAS

CITY           SKY/WX    TMP DP  RH WIND       PRES   REMARKS
WACO           MOCLDY    59  57  93 S13       29.91S
WACO-MCGREGOR  CLOUDY    62  61  96 S10       29.91F
CORSICANA      CLOUDY    62  61  96 S10       29.93F
MEXIA          CLOUDY    64  61  91 S16G22    29.92F
HEARNE         CLOUDY    63  63 100 SE7       29.95S
CAMERON        CLOUDY    65  63  91 S9        29.92S
TEMPLE         CLOUDY    62  61  96 S10       29.91F
KILLEEN        CLOUDY    63  60  91 S15       29.88F
KILLEEN-SKYLRK CLOUDY    63  61  93 S9        29.91F
FORT HOOD      CLOUDY    62  59  92 S12       29.87F
GATESVILLE     MOCLDY    63  61  94 S8G15     29.91F
LAMPASAS       CLOUDY    62  58  88 S8        29.89F
$$

TXZ095>097-106>112-122>126-135>138-148>153-164>167-211200-
EAST TEXAS

CITY           SKY/WX    TMP DP  RH WIND       PRES   REMARKS
PARIS          CLOUDY    62  58  86 S10       29.92F
SULPHUR SPRNGS CLOUDY    64  60  87 SE8       29.94F
MOUNT PLEASANT CLOUDY    64  61  88 S9        29.96F
GILMER         CLOUDY    64  61  90 SE8       29.96F
MINEOLA        LGT RAIN  64  61  88 S7        29.93F
TYLER          CLOUDY    66  62  87 S13       29.94F
LONGVIEW       CLOUDY    64  63  96 S9        29.98R
MARSHALL       CLOUDY    64  60  88 S9        30.02R
ATHENS         CLOUDY    61  61 100 S10G17    29.93F
PALESTINE      CLOUDY    65  63  90 SE7       29.97F
JACKSONVILLE   CLOUDY    64  63  94 S10G16    30.00S
CENTER         CLOUDY    63  60  90 S10G20    30.02F
NACOGDOCHES    CLOUDY    64  32  30 S10       30.00
LUFKIN         CLOUDY    64  62  93 SE10      30.00F
$$

SUPPLEMENTAL OBSERVATIONS (NWS FORT WORTH AREA)

CITY           SKY/WX    TMP DP  RH WIND       PRES   REMARKS
$$

SUPPLEMENTAL OBSERVATIONS (NWS NORMAN AREA)

CITY           SKY/WX    TMP DP  RH WIND       PRES   REMARKS
GOODLETT         N/A     47  31  54 S10       29.76S
ODELL            N/A     47  38  70 S15       29.79R
CROWELL          N/A     47  35  63 S13       29.80R
KNOX CITY        N/A     47  39  72 S10       29.81S
SEYMOUR          N/A     48  43  82 S12       29.81F
$$

SUPPLEMENTAL OBSERVATIONS (NWS SAN ANGELO AREA)

CITY           SKY/WX    TMP DP  RH WIND       PRES   REMARKS
WEINERT          N/A     51  44  77 S13       29.81F
HASKELL          N/A     50  43  78 S10       29.81F
THROCKMORTON     N/A     53  49  88 S12       29.83F
STAMFORD         N/A     53  48  84 S13       29.81F
CLYDE            N/A     54  51  89 S14       29.84F
$$

SUPPLEMENTAL OBSERVATIONS (NWS SHREVEPORT AREA)

CITY           SKY/WX    TMP DP  RH WIND       PRES   REMARKS
$$

SUPPLEMENTAL OBSERVATIONS ARE A COLLECTION OF AUTOMATED INSTRUMENTS
THAT ARE MAINTAINED BY A VARIETY OF FEDERAL AND STATE AGENCIES.
CERTAIN ELEMENTS...SUCH AS HUMIDITY VALUES AND SUSTAINED WIND
SPEEDS...MAY BE APPROXIMATED.




USA.gov is the U.S. government's official web portal to all federal, state and local government web resources and services.